Latest Coastal Weather Observations for Truscott

IDW60701

Issued at 2:22 pm WST Thursday 29 January 2015 (issued every 10 minutes, with the page automatically refreshed every 10 minutes)

About coastal observations | Map of coastal stations | Coastal observations for WA | Marine services | Other Formats
Station Details ID: 001020 Name: TRUSCOTT Lat: -14.09 Lon: 126.39 Height: 51.0 m
Data from the previous 72 hours. | See also: Recent months at Truscott
Date/Time
WST
Temp

°C
Wind Pressure Rain
since 9am
mm
Weather Cloud Vis
km
Sea
Height
m
Swell
Dir
 
Speed
knots
Gust
knots
hPa Trend Height
m
Period
s
Dir
29/02:00pm 30.0 W 7 - 1004.0 - 0.0 - - 10 - - - -
29/01:30pm 30.0 WNW 6 - 1004.0 - 0.0 - Partly cloudy 10 - - - -
29/01:00pm 30.0 W 5 - 1005.0 - 0.0 - Partly cloudy 10 - - - -
29/12:30pm 30.0 W 6 - 1005.0 - 0.0 - Partly cloudy 10 - - - -
29/12:00pm 31.0 W 7 - 1005.5 - 0.0 - Cloudy 10 - - - -
29/11:30am 31.0 SE 4 - 1006.0 - 0.0 - Partly cloudy 10 - - - -
29/11:00am 30.0 SW 4 - 1007.0 - 0.0 - Partly cloudy 10 - - - -
29/10:30am 30.0 SSW 6 8 1007.0 - 0.0 - Partly cloudy 10 - - - -
29/10:00am 30.0 S 8 - 1007.0 - 0.0 - Partly cloudy 10 - - - -
29/09:30am 29.0 SE 6 6 1008.0 - 0.0 - - 10 - - - -
29/09:00am 28.2 SE 7 - 1007.6 - 13.6 - Cloudy 10 - - - -
29/08:30am 28.0 SE 5 - 1008.0 - 13.6 - Partly cloudy 10 - - - -
29/08:00am 27.0 E 10 - 1008.0 - 13.6 - - 10 - - - -
29/07:30am 26.0 ESE 9 - 1008.0 - 13.6 - Partly cloudy 10 - - - -
29/07:00am 25.0 E 5 - 1008.0 - 13.6 - Partly cloudy 10 - - - -
29/06:30am 25.0 ESE 5 - 1007.0 - 13.6 - - 10 - - - -
29/06:00am 24.2 S 3 - 1006.3 - 13.6 - - 10 - - - -
29/05:30am 24.0 S 3 - 1006.0 - 13.6 - - 10 - - - -
29/05:00am 24.0 SW 3 - 1005.0 - 13.2 - - 9 - - - -
29/04:30am 24.0 SW 5 - 1005.0 - 13.2 - - 10 - - - -
29/04:00am 24.0 S 6 - 1004.0 - 13.2 - - 10 - - - -
29/03:30am 24.0 SSW 8 - 1004.0 - 13.2 - - 10 - - - -
29/03:00am 23.9 SSW 8 - 1004.0 - 13.2 - Cloudy 10 - - - -
29/02:30am 24.0 SSW 7 - 1004.0 - 13.2 - Partly cloudy 10 - - - -
29/02:00am 24.0 ESE 5 - 1004.0 - 13.0 - - 10 - - - -
29/01:30am 24.0 W 4 - 1004.0 - 13.0 - Partly cloudy 10 - - - -
29/01:00am 24.0 SW 7 - 1005.0 - 12.8 - Partly cloudy 10 - - - -
29/12:30am 24.0 SW 8 - 1006.0 - 12.2 - Partly cloudy 10 - - - -
29/12:00am 23.6 SW 8 9 1006.2 - 11.6 - Cloudy 10 - - - -
 
Date/Time
WST
Temp

°C
Wind Pressure Rain
since 9am
mm
Weather Cloud Vis
km
Sea
Height
m
Swell
Dir
 
Speed
knots
Gust
knots
hPa Trend Height
m
Period
s
Dir
28/11:30pm 24.0 SSW 11 - 1007.0 - 11.0 - Partly cloudy 10 - - - -
28/11:00pm 24.0 SSW 9 - 1007.0 - 9.6 - Partly cloudy 9 - - - -
28/10:30pm 24.0 SSW 6 - 1007.0 - 7.6 - Partly cloudy 10 - - - -
28/10:00pm 24.0 S 8 - 1007.0 - 6.8 - Partly cloudy 10 - - - -
28/09:30pm 25.0 SSW 11 - 1007.0 - 6.6 - Partly cloudy 10 - - - -
28/09:00pm 25.9 S 7 - 1006.6 - 6.0 - Cloudy 10 - - - -
28/08:30pm 26.0 NW 1 - 1006.0 - 6.0 - Partly cloudy 10 - - - -
28/08:00pm 26.0 ESE 5 - 1006.0 - 6.0 - Partly cloudy 10 - - - -
28/07:30pm 26.0 N 1 - 1005.0 - 6.0 - - 10 - - - -
28/07:03pm 26.0 NNW 8 - 1005.0 - 6.0 - Partly cloudy 10 - - - -
28/07:00pm 26.0 NNW 9 - 1005.0 - 6.0 - Partly cloudy 10 - - - -
28/06:35pm 26.0 N 6 - 1005.0 - 2.4 - Partly cloudy 4 - - - -
28/06:30pm 26.0 NNE 6 - 1005.0 - 0.2 - Cloudy 10 - - - -
28/06:00pm 27.7 E 6 - 1004.1 - 0.0 - Cloudy 10 - - - -
28/05:30pm 30.0 WNW 4 - 1004.0 - 0.0 - Partly cloudy 10 - - - -
28/05:00pm 31.0 W 8 - 1003.0 - 0.0 - - 10 - - - -
28/04:30pm 31.0 W 9 - 1003.0 - 0.0 - - 10 - - - -
28/04:00pm 31.0 WSW 10 - 1002.0 - 0.0 - Partly cloudy 10 - - - -
28/03:30pm 32.0 W 10 - 1002.0 - 0.0 - Partly cloudy 10 - - - -
28/03:00pm 31.6 WNW 8 - 1002.0 - 0.0 - - 10 - - - -
28/02:30pm 31.0 WNW 10 - 1003.0 - 0.0 - - 10 - - - -
28/02:00pm 31.0 NNW 9 - 1003.0 - 0.0 - - 10 - - - -
28/01:30pm 31.0 NNW 8 - 1003.0 - 0.0 - - 10 - - - -
28/01:00pm 31.0 NNW 10 - 1004.0 - 0.0 - - 10 - - - -
28/12:30pm 31.0 NW 8 - 1004.0 - 0.0 - - 10 - - - -
28/12:00pm 31.1 WNW 7 - 1004.2 - 0.0 - - 10 - - - -
28/11:30am 31.0 WNW 7 - 1005.0 - 0.0 - - 10 - - - -
28/11:00am 31.0 WNW 7 - 1005.0 - 0.0 - - 10 - - - -
28/10:30am 31.0 W 6 - 1006.0 - 0.0 - - 10 - - - -
28/10:00am 30.0 WNW 6 - 1006.0 - 0.0 - - 10 - - - -
28/09:30am 30.0 WSW 5 - 1006.0 - 0.0 - - 10 - - - -
28/09:00am 29.2 W 4 - 1006.2 - 32.6 - Cloudy 10 - - - -
28/08:30am 29.0 SW 3 - 1007.0 - 32.6 - - 10 - - - -
28/08:00am 28.0 NNW 1 - 1006.0 - 32.4 - - 10 - - - -
28/07:30am 28.0 E 4 - 1006.0 - 32.4 - - 10 - - - -
28/07:00am 27.0 S 4 - 1006.0 - 32.4 - - 10 - - - -
28/06:30am 26.0 SSE 4 - 1006.0 - 32.4 - - 10 - - - -
28/06:00am 25.0 S 1 - 1005.6 - 32.4 - - 10 - - - -
28/05:30am 24.0 CALM 0 - 1006.0 - 32.4 - - 10 - - - -
28/05:00am 24.0 S 4 - 1005.0 - 32.4 - - 10 - - - -
28/04:30am 24.0 SW 4 - 1005.0 - 32.4 - - 10 - - - -
28/04:00am 25.0 SW 4 - 1005.0 - 32.4 - - 10 - - - -
28/03:30am 24.0 SSW 2 - 1005.0 - 32.4 - - 10 - - - -
28/03:00am 24.2 CALM 0 - 1004.3 - 32.4 - - 10 - - - -
28/02:30am 24.0 S 2 - 1004.0 - 32.4 - - 10 - - - -
28/02:00am 24.0 SSW 2 - 1004.0 - 32.4 - - 10 - - - -
28/01:30am 24.0 SSW 3 - 1005.0 - 32.2 - - 10 - - - -
28/01:00am 24.0 CALM 0 - 1005.0 - 32.2 - - 10 - - - -
28/12:30am 24.0 CALM 0 - 1005.0 - 32.2 - - 10 - - - -
28/12:00am 24.3 CALM 0 - 1005.0 - 32.2 - - 9 - - - -
 
Date/Time
WST
Temp

°C
Wind Pressure Rain
since 9am
mm
Weather Cloud Vis
km
Sea
Height
m
Swell
Dir
 
Speed
knots
Gust
knots
hPa Trend Height
m
Period
s
Dir
27/11:30pm 24.0 SSW 4 - 1006.0 - 32.2 - - 10 - - - -
27/11:00pm 24.0 S 3 - 1006.0 - 32.2 - - 10 - - - -
27/10:30pm 24.0 SSE 4 - 1007.0 - 32.2 - - 10 - - - -
27/10:00pm 24.0 ESE 4 - 1007.0 - 32.2 - - 9 - - - -
27/09:30pm 24.0 S 3 - 1007.0 - 32.2 - - 10 - - - -
27/09:00pm 24.2 SE 5 - 1006.6 - 32.2 - - 10 - - - -
27/08:30pm 24.0 ESE 5 - 1007.0 - 32.2 - Partly cloudy 10 - - - -
27/08:00pm 24.0 E 4 - 1007.0 - 32.2 - Partly cloudy 10 - - - -
27/07:30pm 24.0 SSE 3 - 1007.0 - 32.2 - Partly cloudy 10 - - - -
27/07:00pm 24.0 S 6 - 1008.0 - 32.0 - Partly cloudy 10 - - - -
27/06:59pm 24.0 S 6 - 1008.0 - 32.0 - Partly cloudy 10 - - - -
27/06:50pm 24.0 S 5 - 1008.0 - 31.6 - Partly cloudy 8 - - - -
27/06:36pm 24.0 S 10 - 1008.0 - 29.4 - Partly cloudy 1 - - - -
27/06:30pm 24.0 SSW 11 - 1008.0 - 24.8 - Partly cloudy 3 - - - -
27/06:28pm 24.0 SSW 11 - 1008.0 - 23.4 - Partly cloudy 5 - - - -
27/06:26pm 24.0 SSW 10 - 1008.0 - 21.4 - Partly cloudy 7 - - - -
27/06:25pm 24.0 SSW 10 - 1008.0 - 21.4 - Partly cloudy 7 - - - -
27/06:00pm 23.3 S 17 - 1007.4 - 17.2 - Cloudy 0.4 - - - -
27/05:58pm 23.0 S 18 - 1008.0 - 15.8 - Partly cloudy 0.5 - - - -
27/05:48pm 24.0 S 17 - 1007.0 - 2.8 - Partly cloudy 5 - - - -
27/05:30pm 26.0 SSE 7 - 1006.0 - 0.0 - Partly cloudy 10 - - - -
27/05:00pm 30.0 W 9 - 1005.0 - 0.0 - Partly cloudy 10 - - - -
27/04:30pm 29.0 N 1 - 1004.0 - 0.0 - Partly cloudy 10 - - - -
27/04:00pm 30.0 W 5 - 1004.0 - 0.0 - - 10 - - - -
27/03:30pm 30.0 SW 6 - 1003.0 - 0.0 - Partly cloudy 7 - - - -
27/03:00pm 29.4 S 7 - 1003.8 - 0.0 - Cloudy 10 - - - -
27/02:30pm 31.0 SW 10 - 1004.0 - 0.0 - Partly cloudy 9 - - - -
27/02:00pm 32.0 W 12 - 1004.0 - 0.0 - Partly cloudy 10 - - - -
27/01:30pm 32.0 WNW 11 - 1004.0 - 0.0 - - 10 - - - -
27/01:00pm 32.0 W 11 - 1004.0 - 0.0 - - 10 - - - -
27/12:30pm 32.0 WNW 12 - 1005.0 - 0.0 - - 10 - - - -
27/12:00pm 31.7 WNW 11 - 1005.4 - 0.0 - - 10 - - - -
27/11:30am 31.0 W 11 - 1006.0 - 0.0 - Partly cloudy 10 - - - -
27/11:00am 31.0 WNW 10 - 1007.0 - 0.0 - Partly cloudy 7 - - - -
27/10:30am 31.0 WNW 10 - 1007.0 - 0.0 - Partly cloudy 10 - - - -
27/10:00am 32.0 SW 8 - 1008.0 - 0.0 - - 10 - - - -
27/09:30am 31.0 SW 8 - 1008.0 - 0.0 - - 10 - - - -
27/09:00am 30.5 SW 8 - 1007.9 - 0.2 - - 10 - - - -
27/08:30am 30.0 SSW 9 - 1008.0 - 0.2 - - 10 - - - -
27/08:00am 30.0 SW 7 - 1008.0 - 0.2 - - 10 - - - -
27/07:30am 29.0 SW 6 - 1008.0 - 0.2 - - 10 - - - -
27/07:00am 28.0 SSW 5 - 1008.0 - 0.2 - - 10 - - - -
27/06:30am 27.0 S 6 - 1008.0 - 0.2 - - 10 - - - -
27/06:00am 26.1 S 7 - 1007.8 - 0.2 - - 10 - - - -
27/05:30am 26.0 S 6 - 1007.0 - 0.2 - - 10 - - - -
27/05:00am 24.0 S 2 - 1007.0 - 0.2 - - 10 - - - -
27/04:30am 25.0 S 3 - 1006.0 - 0.2 - - 8 - - - -
27/04:00am 25.0 S 4 - 1006.0 - 0.2 - - 10 - - - -
27/03:30am 25.0 S 4 - 1006.0 - 0.2 - - 10 - - - -
27/03:00am 25.2 SSW 5 - 1005.3 - 0.2 - - 10 - - - -
27/02:30am 26.0 SSW 4 - 1005.0 - 0.2 - - 10 - - - -
27/02:00am 26.0 SSW 4 - 1005.0 - 0.2 - - 10 - - - -
27/01:30am 26.0 WSW 3 - 1005.0 - 0.2 - - 10 - - - -
27/01:00am 25.0 WNW 3 - 1006.0 - 0.2 - - 10 - - - -
27/12:30am 25.0 N 1 - 1006.0 - 0.2 - - 10 - - - -
27/12:25am 25.0 N 2 - 1006.0 - 0.2 - - 10 - - - -
27/12:11am 25.0 CALM 0 - 1006.0 - 0.2 - - 5 - - - -
27/12:00am 24.7 WNW 2 - 1006.2 - 0.2 - - 10 - - - -
 
Date/Time
WST
Temp

°C
Wind Pressure Rain
since 9am
mm
Weather Cloud Vis
km
Sea
Height
m
Swell
Dir
 
Speed
knots
Gust
knots
hPa Trend Height
m
Period
s
Dir
26/11:30pm 25.0 NNW 3 - 1007.0 - 0.2 - - 10 - - - -
26/11:00pm 25.0 W 3 - 1008.0 - 0.2 - - 10 - - - -
26/10:30pm 26.0 SSW 5 - 1008.0 - 0.2 - - 10 - - - -
26/10:00pm 26.0 SSW 5 - 1008.0 - 0.2 - - 10 - - - -
26/09:30pm 27.0 SSE 5 - 1009.0 - 0.2 - - 10 - - - -
26/09:00pm 26.9 ESE 5 - 1008.3 - 0.2 - - 10 - - - -
26/08:30pm 27.0 S 11 - 1009.0 - 0.2 - - 10 - - - -
26/08:00pm 28.0 SSW 8 - 1009.0 - 0.2 - - 10 - - - -
26/07:30pm 28.0 SW 10 - 1008.0 - 0.2 - Partly cloudy 10 - - - -
26/07:00pm 29.0 WSW 9 - 1008.0 - 0.2 - - 10 - - - -
26/06:30pm 29.0 WSW 10 - 1007.0 - 0.2 - - 10 - - - -
26/06:00pm 28.6 W 6 - 1006.5 - 0.2 - - 10 - - - -
26/05:30pm 29.0 W 8 - 1006.0 - 0.2 - Partly cloudy 10 - - - -
26/05:00pm 28.0 NE 5 - 1006.0 - 0.2 - Partly cloudy 10 - - - -
26/04:30pm 28.0 ENE 9 - 1006.0 - 0.2 - Partly cloudy 10 - - - -
26/04:00pm 32.0 W 7 - 1005.0 - 0.2 - - 10 - - - -
26/03:30pm 31.0 W 9 - 1005.0 - 0.2 - - 10 - - - -
26/03:00pm 31.3 W 10 - 1004.6 - 0.2 - - 10 - - - -
26/02:30pm 32.0 W 10 - 1005.0 - 0.2 - Partly cloudy 10 - - - -

Other Formats:

Comma delimited format used in spreadsheet applications
http://www.bom.gov.au/fwo/IDW60701/IDW60701.95101.axf

JavaScript Object Notation format (JSON) in row-major order
http://www.bom.gov.au/fwo/IDW60701/IDW60701.95101.json